Location: Red Shale Campground
(45.5700°N, 106.1600°W)
Time: 05:06:05
(UTC-06:00)

Daily predictions for brighter satellites

Satellite Brightness Start Highest point End
(mag) Time Altitude Azimuth Time Altitude Azimuth Time Altitude Azimuth
Cosmos 2369 Rocket 4.3 00:14:19 22° NNW 00:14:19 22° NNW 00:17:06 10° N
Cosmos 2227 Rocket 4.4 00:19:48 10° NNW 00:21:51 21° N 00:21:51 21° N
CZ-4C R/B 4.4 00:29:52 23° NNE 00:29:52 23° NNE 00:32:33 10° NNE
ATLAS 3B R/B 4.0 01:13:16 36° NNE 01:13:16 36° NNE 01:17:27 10° NNE
Cosmos 1980 Rocket 4.0 02:30:15 27° NE 02:30:15 27° NE 02:32:44 10° NNE
Cosmos 2263 Rocket 4.0 02:34:44 10° N 02:38:04 27° NNE 02:38:04 27° NNE
COSMOS 2455 4.5 02:42:14 28° N 02:42:14 28° N 02:45:46 10° NNE
CENTAUR R/B 3.6 02:43:40 40° ENE 02:43:40 40° ENE 02:48:09 10° NE
USA 215 4.3 02:48:04 10° E 02:54:07 42° NNE 03:00:10 10° NW
ARIANE 5 R/B 3.9 03:11:04 10° NNE 03:14:22 35° NE 03:14:22 35° NE
SL-16 R/B 3.0 03:18:29 54° N 03:18:29 54° N 03:23:14 10° NNW
Cosmos 1709 Rocket 4.5 03:12:02 10° N 03:17:17 58° NE 03:17:17 58° NE
Cosmos 2322 Rocket 2.6 03:40:45 57° NNE 03:40:45 57° NNE 03:45:12 10° NNE
IRS-1D 4.4 03:36:17 10° NNE 03:39:37 43° NNE 03:39:37 43° NNE
Meteor 1-27 Rocket 4.4 03:45:37 49° NNW 03:45:37 49° NNW 03:50:03 10° N
SL-16 R/B 2.5 03:46:02 62° NNE 03:46:02 62° NNE 03:50:44 10° NNE
Resurs 1-4 Rocket 2.6 03:45:08 10° NNE 03:49:17 56° N 03:49:17 56° N
Okean O Rocket 4.2 03:49:07 10° NE 03:51:58 17° E 03:54:01 13° ESE
Cosmos 1697 Rocket 4.4 03:53:34 21° NW 03:53:34 21° NW 03:57:09 10° N
CZ-2D R/B 2.4 03:47:30 10° NNE 03:52:08 64° N 03:52:08 64° N
Cosmos 1844 Rocket 4.4 03:52:07 10° N 03:57:05 31° NE 04:02:00 10° ESE
Cosmos 1455 Rocket 4.2 03:59:07 10° N 04:03:18 41° ENE 04:03:47 39° E
Cosmos 2184 Rocket 4.2 04:02:34 10° N 04:08:46 67° E 04:12:43 24° SSE
Cosmos 2360 Rocket 2.4 04:09:38 59° SE 04:10:14 63° ESE 04:15:50 10° NNE
Cosmos 1980 Rocket 3.7 04:12:01 24° NW 04:12:01 24° NW 04:16:13 10° N
Cosmos 1975 Rocket 4.0 04:13:10 42° N 04:13:10 42° N 04:16:05 10° N
Cosmos 1812 4.0 04:15:11 37° NNE 04:15:11 37° NNE 04:17:41 10° NNE
ADEOS II 4.0 04:09:39 10° NE 04:14:03 26° E 04:18:26 10° SSE
Gblst 52 Del rocket 4.1 04:14:40 71° NW 04:15:21 88° NNE 04:21:29 10° ESE
Cosmos 1340 3.9 04:19:10 38° E 04:19:10 38° E 04:22:27 10° NNE
Cosmos 2263 Rocket 4.1 04:18:33 10° NW 04:19:42 16° NW 04:19:42 16° NW
ADEOS Rocket 2.7 04:18:35 10° N 04:24:05 62° WNW 04:24:09 62° WNW
ATLAS 5 CENTAUR R/B 3.9 04:20:02 10° NNW 04:25:20 35° NE 04:31:06 10° ESE
CZ-2D R/B 3.8 04:24:12 10° N 04:28:04 64° NNW 04:28:04 64° NNW
Cosmos 1536 Rocket 4.3 04:30:12 36° SE 04:31:37 51° E 04:35:59 10° NNE
SL-08 ROCKET BODY 4.2 04:25:58 10° NNW 04:31:49 70° W 04:33:01 55° SSW
CENTAUR R/B 3.4 04:30:50 33° WNW 04:32:29 37° NW 04:39:06 10° NNE
Cosmos 1743 4.3 04:31:16 10° N 04:34:51 35° ENE 04:38:23 10° SE
ADEOS 4.4 04:30:24 10° N 04:34:34 34° NW 04:34:34 34° NW
COBE Rocket 4.0 04:30:51 10° N 04:35:53 60° WNW 04:36:03 59° W
USA 215 3.2 04:30:10 10° SE 04:36:45 89° NNE 04:43:20 10° NW
UNKNOWN OBJECT B 4.2 04:36:45 10° N 04:38:43 27° NNW 04:38:43 27° NNW
Cosmos 2333 Rocket 4.2 04:37:34 10° SSE 04:42:03 25° ESE 04:46:35 10° NE
Cosmos 2154 Rocket 4.3 04:36:34 10° N 04:42:46 66° E 04:48:54 10° SSE
CZ-4B R/B 3.6 04:39:43 10° NNE 04:43:12 44° E 04:44:12 35° SE
Spot 3 4.5 04:38:22 10° NNE 04:43:43 81° WNW 04:45:19 47° SSW
Cosmos 2322 3.6 04:46:43 47° SW 04:48:26 78° WNW 04:54:12 10° NNE
EO 1 Del DPAF 3.6 04:49:43 10° SSE 04:53:33 65° ENE 04:57:23 10° N
Cosmos 2327 Rocket 4.5 04:48:16 10° NNW 04:54:27 60° W 04:58:28 22° SSW
ARIANE 5 R/B 3.7 04:50:44 10° N 04:54:43 26° WNW 04:54:43 26° WNW
Meteor 1-18 Rocket 4.2 04:54:55 41° SW 04:56:43 62° WNW 05:02:18 10° N
Meteor 1-12 Rocket 4.2 04:55:07 10° NNW 05:00:39 57° W 05:05:05 16° S
Cosmos 1500 4.0 04:57:01 10° NNW 04:59:36 36° NW 04:59:36 36° NW
SL-16 R/B 4.2 05:03:34 16° WNW 05:03:34 16° WNW 05:05:29 10° NW
Cosmos 1610 Rocket 4.4 04:55:06 10° NNW 05:01:21 71° W 05:07:38 10° S
Meteor 2-13 Rocket 4.4 04:58:27 10° NNW 05:04:29 59° W 05:10:29 10° S
Nadezhda 1 Rocket 3.8 05:01:18 24° SSW 05:05:07 71° W 05:11:12 10° N
Tiangong 2 3.0 05:06:42 20° SSE 05:06:42 20° SSE 05:08:06 10° SE
Cosmos 1844 3.9 05:00:09 10° NNW 05:05:57 75° ENE 05:11:39 10° SSE
Cosmos 1544 Rocket 4.4 05:03:18 10° NNW 05:06:38 33° WNW 05:06:38 33° WNW
Cosmos 1898 Rocket 4.1 05:02:18 10° NNW 05:07:28 58° ENE 05:12:32 10° SE
Cosmos 1570 Rocket 3.9 05:04:43 29° SSW 05:07:30 87° WNW 05:12:46 10° NNE
Cosmos 2333 4.4 05:03:49 21° SSW 05:07:42 73° ESE 05:13:25 10° NNE
Okean 1 3.6 05:07:40 46° W 05:07:53 46° WNW 05:11:51 10° N
MOS 1 Rocket 3.4 05:06:51 10° N 05:11:29 51° WNW 05:12:55 36° WSW
Meteor 1-13 Rocket 4.3 05:06:23 10° S 05:11:54 78° E 05:17:32 10° NNE
CZ-4B DEB 4.3 05:08:16 10° NNE 05:13:52 82° ESE 05:19:25 10° SSW
CZ-4B R/B 3.3 05:08:37 10° NNE 05:14:18 83° ESE 05:19:52 10° SSW
Cosmos 2074 Rocket 4.5 05:11:37 10° NNW 05:17:16 37° W 05:20:26 23° SW
ERS-2 3.7 05:14:29 10° NNE 05:17:57 35° E 05:21:22 10° SSE
Cosmos 1975 3.7 05:15:41 10° NNW 05:18:44 30° WNW 05:18:44 30° WNW
Cosmos 1238 Rocket 1.9 05:21:10 41° SSW 05:22:03 82° W 05:25:04 10° N
IRS-1C Rocket 4.0 05:17:08 10° NNE 05:22:25 80° WNW 05:27:23 11° SSW
Cosmos 2341 Rocket 3.9 05:17:21 10° N 05:23:38 84° W 05:29:51 10° S
Cosmos 2322 Rocket 3.8 05:22:34 16° WNW 05:24:23 19° NW 05:28:19 10° N
PSLV R/B 4.2 05:24:00 10° N 05:27:30 38° WNW 05:28:32 31° WSW
IRAS Rocket 4.2 05:22:22 10° NNE 05:27:57 87° WNW 05:33:31 10° SSW
Okean O Rocket 1.8 05:24:19 10° N 05:28:40 54° WNW 05:31:30 21° SW
Resurs 1-4 Rocket 3.9 05:26:48 10° NNW 05:29:30 14° NW 05:30:22 14° WNW
SL-16 R/B 3.9 05:27:54 15° WNW 05:30:00 18° NW 05:33:51 10° N
SL-8 R/B 3.7 05:26:51 19° WNW 05:30:13 84° NNE 05:35:01 10° ESE
CZ-2C R/B 3.7 05:26:43 10° S 05:31:13 58° WSW 05:35:42 10° NNW
CZ-2D R/B 3.9 05:29:20 10° NNW 05:32:16 15° NW 05:33:27 14° WNW
Cosmos 2237 4.5 05:30:32 22° SW 05:34:07 52° WNW 05:39:45 10° NNE
Cosmos 2219 Rocket 2.3 05:30:33 10° SSW 05:36:07 80° ESE 05:41:44 10° NNE
Cosmos 1025 Rocket 3.4 05:31:58 10° S 05:36:18 66° E 05:40:41 10° NNE
Cosmos 1937 Rocket 3.8 05:31:18 10° NNW 05:36:39 74° ENE 05:41:56 10° SSE
Cosmos 1437 4.4 05:34:12 10° SSE 05:37:14 36° E 05:40:17 10° NNE
COSMOS 2428 2.8 05:34:00 18° SW 05:38:11 61° WNW 05:43:51 10° NNE
Meteor 2-9 Rocket 4.2 05:33:23 10° N 05:39:07 88° W 05:44:39 10° S
Cosmos 1455 Rocket 4.4 05:37:40 10° NW 05:40:51 20° W 05:40:52 20° W
Cosmos 1844 Rocket 2.9 05:35:50 10° NW 05:41:09 46° WSW 05:46:25 10° S
Okean-O 3.1 05:38:08 10° NNE 05:42:34 62° ESE 05:46:56 10° S
Meteor 1-23 Rocket 4.5 05:39:10 10° S 05:44:57 76° E 05:50:43 10° NNE
NOSS 0 Rocket 4.3 05:39:40 10° SSW 05:45:46 68° ESE 05:51:54 10° NNE
DELTA 2 R/B (1) 4.1 05:43:29 18° WSW 05:47:15 45° S 05:52:31 10° ESE
USA 116 4.0 05:46:04 10° S 05:50:21 72° WSW 05:55:15 10° NNW
ADEOS II 2.5 05:48:58 10° N 05:53:57 44° WNW 05:58:55 10° SW
Cosmos 2360 Rocket 3.4 05:51:25 15° W 05:54:42 25° NW 05:59:19 10° N
Cosmos 1340 4.4 05:54:02 15° W 05:54:48 16° WNW 05:57:12 10° NNW
Cosmos 2298 Rocket 4.0 05:51:06 10° NNW 05:56:23 64° WSW 06:01:38 10° S
Cosmos 2278 Rocket 2.2 05:51:21 10° NNW 05:57:02 79° WSW 06:02:42 10° SSE
Cosmos 2285 Rocket 4.1 05:52:23 10° SSW 05:58:50 85° WNW 06:05:20 10° NNE
CZ-4C R/B 4.0 05:52:23 10° NNW 05:58:55 44° NE 06:06:12 10° ESE
Aureole 2 Rocket 2.6 05:55:49 10° SSW 05:59:25 73° ESE 06:02:43 10° NNE
Meteor 1-19 Rocket 4.5 05:55:12 10° SSW 06:00:39 49° WNW 06:06:14 10° N
Cosmos 1814 Rocket 4.1 05:55:46 10° SSW 06:00:57 82° ESE 06:06:08 10° NNE
Cosmos 1666 3.4 05:59:26 10° NNW 06:02:56 33° W 06:06:27 10° SSW
Cosmos 2237 Rocket 2.4 05:58:29 10° SSW 06:04:09 80° ESE 06:09:53 10° NNE
Cosmos 1959 Rocket 4.4 05:58:06 10° N 06:04:13 80° W 06:10:20 10° S
Cosmos 405 Rocket 2.8 06:00:48 10° SSW 06:04:52 81° WNW 06:08:54 10° N
Meteor 1-15 Rocket 4.3 06:02:02 10° NNW 06:07:56 72° W 06:13:49 10° S
Cosmos 371 Rocket 4.3 06:03:47 10° S 06:08:29 51° ESE 06:13:13 10° NNE
Okean 2 3.4 06:05:22 10° SSW 06:09:31 75° W 06:13:44 10° N
Cosmos 1743 4.2 06:07:47 10° NW 06:10:24 18° W 06:13:00 10° SW
ATLAS 5 CENTAUR R/B 2.5 06:04:31 10° NW 06:10:24 60° WSW 06:16:47 10° SSE
Meteor 2-4 Rocket 3.8 06:05:21 10° SSW 06:10:47 54° WNW 06:16:09 10° N
ERBS 3.9 06:07:53 10° NW 06:11:10 36° NNE 06:14:26 10° E
Cosmos 332 Rocket 4.1 06:07:17 10° SSW 06:12:10 73° ESE 06:17:04 10° NNE
Cosmos 2297 4.2 06:06:31 10° NNW 06:12:17 68° ENE 06:17:58 10° SE
Geosat 4.4 06:09:22 10° SE 06:14:21 71° ENE 06:19:23 10° NNW
Cosmos 2366 rocket 4.0 06:11:24 10° NNW 06:17:43 72° W 06:24:02 10° S
CZ-4B R/B 4.3 06:14:10 10° N 06:18:35 55° WNW 06:22:58 10° SSW
Meteor 1-31 Rocket 3.1 06:16:30 10° N 06:20:09 44° WNW 06:23:47 10° SW
USA 215 4.1 06:14:46 10° S 06:20:16 28° SW 06:25:47 10° WNW
Cosmos 2058 Rocket 3.1 06:16:01 10° N 06:20:32 84° W 06:24:59 10° S
SKYMED 2 3.5 06:18:08 10° S 06:22:28 81° WSW 06:26:50 10° NNW
Cosmos 1867 4.0 06:19:30 10° NW 06:24:34 40° WSW 06:29:34 10° S
Cosmos 2333 Rocket 2.4 06:20:19 10° SW 06:25:55 56° WNW 06:31:35 10° NNE
EXPRESS MD2 4.4 06:23:01 10° SW 06:26:48 31° SSE 06:29:12 10° E
Feng Yun 1-1 Rocket 4.5 06:24:06 10° N 06:29:51 57° WNW 06:35:27 10° SW
